Printer-friendly version

IAU Minor Planet Center

Minor Planet Center

MPEC 2000-C38: 2000 CE59

The following Minor Planet Electronic Circular may be linked-to from your own Web pages, but must not otherwise be redistributed electronically.


Read MPEC 2000-C37 Read MPEC 2000-C39


M.P.E.C. 2000-C38                                Issued 2000 Feb.  9, 23:12 UT

     The Minor Planet Electronic Circulars contain information on unusual
         minor planets and routine data on comets.  They are published
   on behalf of Commission 20 of the International Astronomical Union by the
          Minor Planet Center, Smithsonian Astrophysical Observatory,
                          Cambridge, MA 02138, U.S.A.

             Prepared using the Tamkin Foundation Computer Network

             BMARSDEN@CFA.HARVARD.EDU or GWILLIAMS@CFA.HARVARD.EDU
          URL http://cfa-www.harvard.edu/iau/mpc.html  ISSN 1523-6714

                                   2000 CE59

Observations:
     K00C59E* C2000 02 04.30377 10 09 19.12 +12 25 23.8          18.8        704
     K00C59E  C2000 02 04.33263 10 09 13.55 +12 24 37.1          19.3        704
     K00C59E  C2000 02 04.34696 10 09 10.72 +12 24 15.0          19.1        704
     K00C59E  C2000 02 04.36130 10 09 08.04 +12 23 51.0          19.1        704
     K00C59E  C2000 02 05.20679 10 06 33.84 +12 00 40.7                      747
     K00C59E  C2000 02 05.21049 10 06 33.12 +12 00 34.5                      747
     K00C59E  C2000 02 05.21439 10 06 32.38 +12 00 27.6                      747
     K00C59E  C2000 02 05.31670 10 06 12.27 +11 57 35.3          19.1 V      739
     K00C59E  C2000 02 05.32185 10 06 11.11 +11 57 24.9          18.2 V      739
     K00C59E IC2000 02 05.32792 10 06 10.02 +11 57 17.8          18.2 V      739
     K00C59E  C2000 02 05.34528 10 06 06.93 +11 56 49.0          18.5 V      651
     K00C59E  C2000 02 05.34971 10 06 06.03 +11 56 41.4                      651
     K00C59E  C2000 02 05.60156 10 05 18.76 +11 50 15.1          18.4 R      422
     K00C59E  C2000 02 05.60358 10 05 18.41 +11 50 11.1          18.5 R      422
     K00C59E  C2000 02 05.60490 10 05 18.17 +11 50 09.5          18.3 R      422
     K00C59E  C2000 02 05.63066 10 05 13.41 +11 48 47.7          18.5 V      402
     K00C59E  C2000 02 05.63191 10 05 13.19 +11 48 45.6                      402
     K00C59E  C2000 02 05.63443 10 05 12.69 +11 48 41.8                      402
     K00C59E  C2000 02 05.63574 10 05 12.37 +11 48 39.2                      402
     K00C59E  C2000 02 05.85292 10 04 31.92 +11 42 24.6          18.3 R      046
     K00C59E  C2000 02 05.85418 10 04 31.68 +11 42 22.8          18.1 R      046
     K00C59E  C2000 02 05.85519 10 04 31.52 +11 42 20.3          17.9 R      046
     K00C59E  C2000 02 05.85729 10 04 31.10 +11 42 17.3                      046
     K00C59E  C2000 02 05.85859 10 04 30.83 +11 42 14.5                      046
     K00C59E FC2000 02 05.90463 10 04 21.74 +11 40 56.6                      611
     K00C59E  C2000 02 06.02910 10 03 56.69 +11 37 25.1                      557
     K00C59E  C2000 02 06.03049 10 03 56.45 +11 37 23.1                      557
     K00C59E  C2000 02 06.03189 10 03 56.14 +11 37 20.7                      557
     K00C59E  C2000 02 06.23810 10 03 17.86 +11 31 35.4          18.2        704
     K00C59E  C2000 02 06.25304 10 03 14.84 +11 31 10.0          18.6        704
     K00C59E  C2000 02 06.26795 10 03 11.79 +11 30 44.6          18.6        704
     K00C59E  C2000 02 06.28289 10 03 08.72 +11 30 19.4          18.1        704
     K00C59E  C2000 02 06.29779 10 03 05.64 +11 29 54.3          18.4        704
     K00C59E  C2000 02 06.34403 10 02 56.08 +11 28 34.3          18.2 R      858
     K00C59E  C2000 02 06.34686 10 02 55.48 +11 28 29.2          18.2 R      858
     K00C59E  C2000 02 06.34995 10 02 54.85 +11 28 23.8          18.2 R      858
     K00C59E  C2000 02 06.55524 10 02 15.80 +11 23 07.6                      422
     K00C59E  C2000 02 06.55654 10 02 15.53 +11 23 05.1          17.9 R      422
     K00C59E  C2000 02 06.55723 10 02 15.42 +11 23 03.8          17.6 R      422
     K00C59E  C2000 02 06.55817 10 02 15.27 +11 23 03.2          17.8 R      422
     K00C59E  C2000 02 07.59800 09 58 48.04 +10 52 41.3          18.4 R      422
     K00C59E  C2000 02 07.59887 09 58 47.82 +10 52 39.9          18.6 R      422
     K00C59E  C2000 02 07.60003 09 58 47.50 +10 52 38.1          17.8 R      422
     K00C59E  C2000 02 07.83388 09 58 01.31 +10 44 52.6                      557
     K00C59E  C2000 02 07.83528 09 58 00.98 +10 44 49.8                      557
     K00C59E  C2000 02 07.83668 09 58 00.68 +10 44 47.3                      557
     K00C59E  C2000 02 08.34681 09 56 14.54 +10 29 41.3                      711
     K00C59E  C2000 02 08.35207 09 56 13.42 +10 29 32.0                      711
     K00C59E  C2000 02 08.35733 09 56 12.29 +10 29 22.8                      711
     K00C59E  C2000 02 08.39657 09 56 03.79 +10 28 09.6          18.1        704
     K00C59E  C2000 02 08.41333 09 56 00.12 +10 27 39.7          18.4        704
     K00C59E  C2000 02 08.43013 09 55 56.47 +10 27 08.3          18.7        704
     K00C59E  C2000 02 08.44693 09 55 52.81 +10 26 37.7          18.5        704
     K00C59E  C2000 02 08.46388 09 55 49.16 +10 26 06.9          18.7        704
     K00C59E IC2000 02 08.61829 09 55 18.57 +10 22 05.5          18.2 V      422

Observer details:
046 Klet.  Observers J. Ticha, M. Tichy.  0.57-m f/5.2 reflector + CCD.
402 Dynic Astronomical Observatory.  Observer A. Sugie.  0.60-m f/3.7 reflector
    + CCD.
422 Loomberah.  Observer G. J. Garradd.  0.45-m f/5.4 reflector + CCD.
557 Ondrejov.  Observers P. Pravec, L. Sarounova, P. Kusnirak.  0.65-m f/3.6
    reflector + CCD.
611 Starkenburg.  Observers M. Busch, A. Seib, R. Stoss.  Measurer L. Kurtze.
    0.45-m f/4.4 reflector + CCD.
651 Grasslands Observatory, Tucson.  Observer J. E. McGaha.  0.62-m f/5.1
    reflector + CCD.
704 Lincoln Laboratory ETS, New Mexico.  Observers M. Blythe, F. Shelly,
    M. Bezpalko, M. Elowitz, R. Huber.  Measurers J. Stuart, H. Viggh,
    R. Sayer, J. B. Evans.  1.0-m f/2.15 reflector + CCD.
711 McDonald Observatory.  Observer J. G. Ries.  0.76-m reflector + CCD.
739 Sunflower Observatory, Olathe.  Observer L. Robinson.  0.25-m
    Schmidt-Cassegrain + CCD.
747 Baton Rouge Observatory.  Observer W. R. Cooney, Jr., D. Thomas, M. Hess.
    0.51-m f/8.4 reflector + CCD.
858 Tebbutt Observatory, Edgewood.  Observer F. B. Zoltowski.  0.3-m f/3.3
    Schmidt-Cassegrain + CCD.

Orbital elements:
2000 CE59                                                            PHA 0.004A
Epoch 2000 Feb. 6.0 TT = JDT 2451580.5                  Williams
M 249.14770              (2000.0)            P               Q
n   0.80970872     Peri.  307.61619     -0.04973678     +0.98873965
a   1.1400315      Node   318.83698     -0.83543407     -0.11862765
e   0.1686367      Incl.   12.38211     -0.54733552     +0.09122166
P   1.22           H   20.3           G   0.15
From 55 observations 2000 Feb. 4-8.

Ephemeris:
2000 CE59                a,e,i = 1.14, 0.17, 12                  q = 0.9478
Date    TT    R. A. (2000) Decl.     Delta      r     Elong.  Phase     V
2000 02 06    10 04.05   +11 38.6    0.253    1.234   167.5     9.9    18.4
2000 02 16    09 27.66   +06 19.2    0.226    1.211   170.7     7.6    18.0
2000 02 26    08 47.95   +00 20.6    0.217    1.187   152.3    22.8    18.4
2000 03 07    08 13.67   -05 10.9    0.224    1.161   134.5    37.6    18.9
2000 03 17    07 49.91   -09 40.4    0.240    1.134   119.8    49.6    19.3
2000 03 27    07 36.39   -13 16.3    0.259    1.106   108.1    59.0    19.7
2000 04 06    07 30.70   -16 19.2    0.276    1.079    99.0    66.4    20.0
2000 04 16    07 30.42   -19 08.2    0.288    1.052    91.6    72.5    20.2
2000 04 26    07 33.27   -21 54.7    0.294    1.027    85.6    77.8    20.4
2000 05 06    07 37.61   -24 42.8    0.292    1.004    80.6    82.7    20.5
2000 05 16    07 42.05   -27 35.0    0.283    0.984    76.3    87.4    20.6
2000 05 26    07 45.03   -30 27.2    0.267    0.967    72.6    92.2    20.6
2000 06 05    07 45.25   -33 10.8    0.243    0.956    69.2    97.1    20.6
2000 06 15    07 40.95   -35 33.4    0.214    0.949    66.0   102.1    20.6
2000 06 25    07 29.88   -37 07.2    0.181    0.948    62.9   107.3    20.5

Gareth V. Williams           (C) Copyright 2000 MPC           M.P.E.C. 2000-C38

Read MPEC 2000-C37 Read MPEC 2000-C39


Our Web policy. Index to the CBAT/MPC/ICQ pages.


Valid HTML 4.01!